Content
SEND FEEDBACK

Daily
Averages
Monthly
Summary
Philippines

BAGUMBAYAN, PHILIPPINES


Home > Asia > Philippines
Elevation: 49 feet     Latitude: 14 31N     Longitude: 121 00E

WEATHER
 
SELECT A DAY
Number of Records: 172,358;   Date Range: 7/1/96 - 7/20/14
 
SHARE

PRINT THIS DATA

[ ← Previous Day ]
WEATHER ALMANAC - APRIL 24, 2013
[ Next Day → ]
[ °C ]   °F
Weather ElementAverageHighLow
Temperature88.7 °F97 °F (2:00 pm)80 °F (5:00 am)
Dewpoint71.8 °F77 °F (11:00 pm)67 °F (2:00 pm)
Humidity56.6 %79 % (5:00 am)29 % (2:00 pm)
Barometer29.86 in29.94 in (8:00 am)29.77 in (3:00 pm)
Wind Speed6 mph9.2 mph (4:00 pm)
Weather ElementAverage
Visibility6.1 mi
Wind DirectionESE (123.5 °)

Weather ElementTotal
Precipitation---
Cooling Degree Days23.5 (Base 65)
Growing Degree Days38.5 (Base 50)
Averaged from 31 records on April 24, 2013
WEATHER CONDITIONS BREAKOUT
WIND DIRECTION BREAKOUT
WEATHER BY HOUR - APRIL 24, 2013
[ °C ]   °F
Local TimeTemperatureDewpointHumidityBarometerVisibilityWind DirectionWind SpeedGust SpeedPrecipitationEventsConditions
1:00 AM84.2 °F71.6 °F66 %29.89 in6.2 miSE (130°)8.1 mphPartly Cloudy
2:00 AM84.0 °F72.0 °F60 %29.88 in6.0 miESE (120°)6.7 mphScattered Clouds
2:00 AM84.2 °F71.6 °F66 %29.86 in6.2 miESE (120°)6.9 mphPartly Cloudy
3:00 AM84.2 °F71.6 °F66 %29.86 in6.2 miESE (120°)5.8 mphPartly Cloudy
4:00 AM82.4 °F73.4 °F74 %29.86 in6.2 miESE (120°)5.8 mphPartly Cloudy
5:00 AM80.0 °F73.0 °F74 %29.87 in6.0 miENE (70°)4.5 mphScattered Clouds
5:00 AM80.6 °F73.4 °F79 %29.86 in6.2 miENE (70°)5.8 mphPartly Cloudy
6:00 AM80.6 °F71.6 °F74 %29.89 in6.2 miCalmPartly Cloudy
7:00 AM80.6 °F71.6 °F74 %29.92 in6.2 miNNE (30°)6.9 mphPartly Cloudy
8:00 AM87.0 °F72.0 °F51 %29.94 in6.0 miNorth (350°)2.2 mphScattered Clouds
8:00 AM87.8 °F71.6 °F58 %29.92 in6.2 miNorth (350°)2.3 mphPartly Cloudy
9:00 AM87.8 °F73.4 °F62 %29.92 in6.2 miWNW (290°)8.1 mphPartly Cloudy
10:00 AM89.6 °F73.4 °F59 %29.92 in6.2 miWest (280°)5.8 mphPartly Cloudy
11:00 AM92.0 °F71.0 °F40 %29.92 in6.0 miSSW (200°)4.5 mphScattered Clouds
11:00 AM91.4 °F71.6 °F52 %29.92 in6.2 miVariable5.8 mphPartly Cloudy
12:00 PM93.2 °F69.8 °F46 %29.89 in6.2 miESE (110°)8.1 mphScattered Clouds
1:00 PM96.8 °F69.8 °F41 %29.83 in6.2 miVariable8.1 mphScattered Clouds
2:00 PM97.0 °F67.0 °F29 %29.83 in6.0 miSE (140°)6.7 mphScattered Clouds
2:00 PM96.8 °F69.8 °F41 %29.80 in6.2 miSE (130°)6.9 mphPartly Cloudy
3:00 PM96.8 °F71.6 °F44 %29.77 in6.2 miVariable8.1 mphPartly Cloudy
4:00 PM95.0 °F71.6 °F47 %29.77 in6.2 miESE (120°)9.2 mphPartly Cloudy
5:00 PM95.0 °F70.0 °F34 %29.78 in6.0 miSE (140°)6.7 mphScattered Clouds
5:00 PM95.0 °F69.8 °F44 %29.77 in6.2 miSE (140°)8.1 mphPartly Cloudy
6:00 PM93.2 °F69.8 °F46 %29.80 in6.2 miSE (130°)6.9 mphPartly Cloudy
7:00 PM89.6 °F69.8 °F52 %29.83 in6.2 miVariable5.8 mphPartly Cloudy
8:00 PM89.0 °F72.0 °F48 %29.85 in6.0 miSE (130°)4.5 mphScattered Clouds
8:00 PM89.6 °F71.6 °F55 %29.83 in6.2 miSE (130°)2.3 mphPartly Cloudy
9:00 PM87.8 °F71.6 °F58 %29.86 in6.2 miSE (140°)4.6 mphPartly Cloudy
10:00 PM86.0 °F75.2 °F70 %29.89 in6.2 miSE (140°)5.8 mphPartly Cloudy
11:00 PM85.0 °F77.0 °F70 %29.90 in6.0 miSE (130°)6.7 mphScattered Clouds
11:00 PM86.0 °F77.0 °F74 %29.89 in6.2 miVariable6.9 mphPartly Cloudy
Hourly data recorded from RPLL, located miles away from Bagumbayan, Philippines







STORIES FROM OUR PARTNERS